| time (UTC) | temp C | wind direction | speed KPH | gust KPH | rain 1hr cm | rain 24hr cm | rain mn cm | humidity % | barometer mb |
| 20260906062459 | 14 | 323 | 3.2 | 8.0 | 0.00 | 0.18 | 0.00 | 80 | 1008.7 |
| 20260906060129 | 13 | 318 | 6.4 | 9.7 | 0.00 | 0.18 | 0.00 | 78 | 1008.6 |
| 20260906054458 | 13 | 334 | 8.0 | 11.3 | 0.00 | 0.18 | 0.00 | 81 | 1008.4 |
| 20260906052459 | 13 | 339 | 8.0 | 11.3 | 0.00 | 0.18 | 0.00 | 80 | 1008.1 |
| 20260906050459 | 13 | 358 | 12.9 | 17.7 | 0.00 | 0.18 | 0.00 | 79 | 1007.9 |
| 20260906044130 | 13 | 356 | 17.7 | 20.9 | 0.00 | 0.18 | 0.00 | 78 | 1007.5 |
| 20260906042129 | 12 | 359 | 14.5 | 19.3 | 0.00 | 0.18 | 0.00 | 81 | 1007.5 |
| 20260906040129 | 12 | 356 | 16.1 | 20.9 | 0.00 | 0.18 | 0.00 | 78 | 1007.3 |
| 20260906034129 | 12 | 1 | 17.7 | 22.5 | 0.00 | 0.18 | 0.00 | 79 | 1007.0 |
| 20260906032457 | 12 | 356 | 19.3 | 24.1 | 0.00 | 0.18 | 0.00 | 78 | 1006.8 |
| 20260906030459 | 12 | 355 | 20.9 | 29.0 | 0.00 | 0.18 | 0.00 | 78 | 1006.6 |
| 20260906024459 | 12 | 357 | 20.9 | 29.0 | 0.00 | 0.18 | 0.00 | 77 | 1006.4 |
| 20260906022459 | 12 | 354 | 24.1 | 33.8 | 0.00 | 0.18 | 0.00 | 76 | 1006.3 |
| 20260906020459 | 12 | 358 | 29.0 | 38.6 | 0.00 | 0.18 | 0.00 | 75 | 1006.1 |
| 20260906014500 | 12 | 1 | 30.6 | 38.6 | 0.00 | 0.18 | 0.00 | 73 | 1005.9 |
| 20260906012457 | 12 | 2 | 32.2 | 40.2 | 0.00 | 0.18 | 0.00 | 70 | 1004.7 |
| 20260906010500 | 12 | 2 | 32.2 | 43.5 | 0.00 | 0.18 | 0.00 | 70 | 1005.3 |
| 20260906002128 | 12 | 2 | 32.2 | 40.2 | 0.00 | 0.18 | 0.00 | 70 | 1004.7 |
| 20260906000128 | 12 | 2 | 33.8 | 41.8 | 0.00 | 0.18 | 0.00 | 71 | 1004.6 |
| 20260905234458 | 12 | 358 | 30.6 | 41.8 | 0.00 | 0.18 | 0.00 | 77 | 1004.4 |
| 20260905232457 | 12 | 357 | 30.6 | 41.8 | 0.00 | 0.18 | 0.00 | 78 | 1004.1 |
| 20260905230457 | 13 | 358 | 30.6 | 41.8 | 0.00 | 0.18 | 0.00 | 79 | 1003.8 |
| 20260905224456 | 13 | 357 | 30.6 | 38.6 | 0.00 | 0.18 | 0.00 | 80 | 1003.5 |
| 20260905222457 | 13 | 357 | 29.0 | 38.6 | 0.00 | 0.18 | 0.00 | 81 | 1003.1 |
| 20260905220458 | 13 | 359 | 33.8 | 41.8 | 0.00 | 0.18 | 0.00 | 82 | 1002.9 |
| 20260905214458 | 13 | 356 | 29.0 | 40.2 | 0.00 | 0.18 | 0.00 | 82 | 1002.6 |
| 20260905212458 | 14 | 342 | 25.7 | 37.0 | 0.00 | 0.18 | 0.00 | 82 | 1002.4 |
| 20260905210455 | 14 | 341 | 27.4 | 37.0 | 0.00 | 0.18 | 0.00 | 84 | 1002.1 |
| 20260905204456 | 14 | 341 | 27.4 | 38.6 | 0.18 | 0.18 | 0.18 | 82 | 1001.9 |
| 20260905202457 | 14 | 344 | 25.7 | 33.8 | 0.18 | 0.18 | 0.18 | 85 | 1001.8 |
| 20260905200458 | 14 | 343 | 25.7 | 35.4 | 0.18 | 0.18 | 0.18 | 83 | 1001.6 |
| 20260905194127 | 14 | 345 | 22.5 | 33.8 | 0.00 | 0.00 | 0.00 | 86 | 1001.4 |
| 20260905192128 | 13 | 329 | 22.5 | 33.8 | 0.00 | 0.00 | 0.00 | 91 | 1001.3 |
| 20260905190127 | 15 | 326 | 20.9 | 27.4 | 0.00 | 0.00 | 0.00 | 76 | 1001.2 |
| 20260905184457 | 15 | 324 | 17.7 | 27.4 | 0.00 | 0.00 | 0.00 | 79 | 1001.1 |
| 20260905180454 | 15 | 320 | 20.9 | 27.4 | 0.00 | 0.00 | 0.00 | 79 | 1000.8 |
| 20260905174454 | 15 | 319 | 20.9 | 30.6 | 0.00 | 0.00 | 0.00 | 78 | 1000.6 |
| 20260905172455 | 15 | 318 | 19.3 | 27.4 | 0.00 | 0.00 | 0.00 | 77 | 1000.4 |
| 20260905170456 | 15 | 322 | 20.9 | 29.0 | 0.00 | 0.00 | 0.00 | 72 | 1000.2 |
| 20260905164457 | 15 | 321 | 20.9 | 30.6 | 0.00 | 0.00 | 0.00 | 74 | 1000.0 |
| 20260905162128 | 16 | 318 | 17.7 | 25.7 | 0.00 | 0.00 | 0.00 | 70 | 999.9 |
| 20260905160126 | 16 | 323 | 19.3 | 27.4 | 0.00 | 0.00 | 0.00 | 71 | 999.6 |
| 20260905154455 | 16 | 320 | 19.3 | 29.0 | 0.00 | 0.00 | 0.00 | 68 | 999.5 |
| 20260905152456 | 16 | 323 | 20.9 | 29.0 | 0.00 | 0.00 | 0.00 | 68 | 999.3 |
| 20260905150455 | 16 | 317 | 20.9 | 27.4 | 0.00 | 0.00 | 0.00 | 65 | 999.3 |
| 20260905144456 | 16 | 316 | 20.9 | 29.0 | 0.00 | 0.00 | 0.00 | 63 | 999.1 |
| 20260905142456 | 16 | 322 | 20.9 | 27.4 | 0.00 | 0.00 | 0.00 | 64 | 999.0 |
| 20260905140455 | 17 | 325 | 20.9 | 29.0 | 0.00 | 0.00 | 0.00 | 62 | 998.9 |
| 20260905134455 | 17 | 323 | 20.9 | 29.0 | 0.00 | 0.00 | 0.00 | 61 | 998.7 |
| 20260905132127 | 17 | 323 | 22.5 | 29.0 | 0.00 | 0.00 | 0.00 | 60 | 998.6 |
| 20260905130500 | 17 | 328 | 22.5 | 29.0 | 0.00 | 0.00 | 0.00 | 62 | 998.3 |
| 20260905124455 | 17 | 336 | 19.3 | 24.1 | 0.00 | 0.00 | 0.00 | 66 | 998.3 |
| 20260905122126 | 17 | 329 | 19.3 | 25.7 | 0.00 | 0.00 | 0.00 | 62 | 998.1 |
| 20260905114456 | 17 | 329 | 19.3 | 24.1 | 0.00 | 0.00 | 0.00 | 58 | 997.8 |
| 20260905112128 | 16 | 326 | 16.1 | 20.9 | 0.00 | 0.00 | 0.00 | 63 | 997.5 |
| 20260905104456 | 16 | 327 | 16.1 | 20.9 | 0.00 | 0.00 | 0.00 | 65 | 997.2 |
| 20260905102456 | 17 | 332 | 16.1 | 20.9 | 0.00 | 0.00 | 0.00 | 63 | 996.9 |
| 20260905100455 | 16 | 336 | 16.1 | 20.9 | 0.00 | 0.00 | 0.00 | 64 | 996.7 |
| 20260905094454 | 16 | 331 | 16.1 | 20.9 | 0.00 | 0.00 | 0.00 | 65 | 996.5 |
| 20260905092455 | 16 | 334 | 14.5 | 20.9 | 0.00 | 0.00 | 0.00 | 66 | 996.4 |
| 20260905090456 | 16 | 335 | 12.9 | 16.1 | 0.00 | 0.00 | 0.00 | 67 | 996.2 |
| 20260905082457 | 15 | 356 | 14.5 | 17.7 | 0.00 | 0.00 | 0.00 | 71 | 996.0 |
| 20260905080124 | 15 | 353 | 14.5 | 20.9 | 0.00 | 0.00 | 0.00 | 71 | 995.9 |
| 20260905074453 | 15 | 353 | 14.5 | 19.3 | 0.00 | 0.00 | 0.00 | 72 | 995.7 |
| 20260905072453 | 15 | 2 | 16.1 | 20.9 | 0.00 | 0.00 | 0.00 | 72 | 995.6 |
| 20260905070456 | 15 | 5 | 14.5 | 20.9 | 0.00 | 0.00 | 0.00 | 71 | 995.4 |